Weather History for KJST - April, 2013

Change the Weather History Date:

Saturday, April 20, 2013

  Actual Average Record
Temperature  
Mean Temperature 36 °F 49 °F  
Max Temperature 43 °F 59 °F 90 °F (1976)
Min Temperature 30 °F 40 °F 23 °F (1897)
Degree Days  
Heating Degree Days 29 16  
Month to date heating degree days 395  
Since 1 July heating degree days 6187  
Cooling Degree Days 0 0  
Month to date cooling degree days 0  
Year to date cooling degree days 0  
Moisture  
Dew Point 25 °F    
Average Humidity 69    
Maximum Humidity 93    
Minimum Humidity 41    
Precipitation  
Precipitation 0.02 in 0.11 in 1.08 in (1901)
Month to date precipitation 2.50  
Year to date precipitation 11.02  
Sea Level Pressure  
Sea Level Pressure 30.01 in    
Wind  
Wind Speed 15 mph (West)    
Max Wind Speed 25 mph    
Max Gust Speed 34 mph    
Visibility 8 miles    
Events Snow    
T = Trace of Precipitation, MM = Missing Value Source: NWS Daily Summary

Daily Weather History Graph

Daily Weather History Graph

Search for Another Location

Airport or City:

Trip Planner

Search our weather history database for the weather conditions in past years. The results will help you decide how hot, cold, wet, or windy it might be!

Date:

Astronomy

Apr. 20, 2013 Rise Set
Actual Time 6:29 AM EDT 7:59 PM EDT
Civil Twilight 6:00 AM EDT 8:28 PM EDT
Nautical Twilight 5:26 AM EDT 9:02 PM EDT
Astronomical Twilight 4:50 AM EDT 9:39 PM EDT
Moon 2:41 PM EDT (4/20) 3:18 AM EDT (4/20)
Length of Visible Light 14h 27m
Length of Day
13h 30m
Waxing Gibbous, 71% of the Moon is Illuminated
Apr 20
Waxing Gibbous
Apr 25
Full
May 2
Last Quarter
May 9
New
May 18
First Quarter

Hourly Weather History & Observations

Time (EDT) Temp. Windchill Dew Point Humidity Pressure Visibility Wind Dir Wind Speed Gust Speed Precip Events Conditions
12:03 AM 39.2 °F 31.2 °F 28.4 °F 65% 29.81 in 10.0 mi West 13.8 mph 21.9 mph N/A   Overcast
12:54 AM 37.9 °F 30.0 °F 27.0 °F 65% 29.82 in 10.0 mi WSW 12.7 mph - N/A   Overcast
1:54 AM 37.0 °F 27.4 °F 27.0 °F 67% 29.82 in 10.0 mi West 17.3 mph 27.6 mph N/A   Overcast
2:05 AM 35.6 °F 25.2 °F 28.4 °F 75% 29.82 in 9.0 mi West 18.4 mph 32.2 mph 0.00 in Snow Light Snow
2:54 AM 34.0 °F 24.6 °F 28.9 °F 82% 29.85 in 3.0 mi West 13.8 mph 21.9 mph 0.00 in Snow Light Snow
3:23 AM 33.8 °F 24.8 °F 30.2 °F 87% 29.84 in 2.5 mi West 12.7 mph - 0.00 in Snow Light Snow
3:31 AM 33.8 °F 26.4 °F 30.2 °F 87% 29.84 in 2.5 mi West 9.2 mph - 0.01 in Snow Light Snow
3:38 AM 32.0 °F 23.0 °F 30.2 °F 93% 29.85 in 2.0 mi West 11.5 mph 18.4 mph 0.01 in Snow Light Snow
3:40 AM 32.0 °F 22.5 °F 30.2 °F 93% 29.85 in 1.5 mi West 12.7 mph 21.9 mph 0.01 in Snow Light Snow
3:52 AM 32.0 °F 19.8 °F 30.2 °F 93% 29.86 in 2.0 mi West 20.7 mph 26.5 mph 0.01 in Snow Light Snow
3:54 AM 32.0 °F 20.5 °F 30.0 °F 92% 29.89 in 3.0 mi West 18.4 mph 31.1 mph 0.01 in Snow Light Snow
4:03 AM 32.0 °F 20.1 °F 30.2 °F 93% 29.86 in 3.0 mi West 19.6 mph 31.1 mph 0.01 in Snow Light Snow
4:17 AM 32.0 °F 22.1 °F 28.4 °F 87% 29.87 in 9.0 mi West 13.8 mph 28.8 mph 0.01 in   Overcast
4:35 AM 32.0 °F 20.8 °F 28.4 °F 87% 29.87 in 10.0 mi West 17.3 mph 28.8 mph 0.01 in   Overcast
4:54 AM 32.0 °F 20.8 °F 26.1 °F 79% 29.92 in 10.0 mi West 17.3 mph 28.8 mph 0.01 in   Mostly Cloudy
5:54 AM 30.9 °F 20.7 °F 25.0 °F 79% 29.93 in 10.0 mi West 13.8 mph 24.2 mph N/A   Mostly Cloudy
6:08 AM 30.2 °F 20.8 °F 24.8 °F 80% 29.88 in 10.0 mi WSW 11.5 mph 21.9 mph N/A   Mostly Cloudy
6:54 AM 32.0 °F 21.6 °F 25.0 °F 75% 29.95 in 10.0 mi West 15.0 mph 25.3 mph N/A   Overcast
7:03 AM 32.0 °F 21.2 °F 24.8 °F 75% 29.90 in 10.0 mi WSW 16.1 mph 28.8 mph N/A   Overcast
7:54 AM 32.0 °F 23.6 °F 25.0 °F 75% 29.97 in 10.0 mi WSW 10.4 mph 26.5 mph N/A   Overcast
8:54 AM 33.1 °F 21.5 °F 26.1 °F 75% 30.00 in 10.0 mi West 19.6 mph 29.9 mph 0.00 in   Overcast
9:47 AM 33.8 °F 22.5 °F 24.8 °F 70% 29.97 in 10.0 mi West 19.6 mph 33.4 mph N/A   Overcast
9:54 AM 34.0 °F 21.3 °F 24.1 °F 67% 30.02 in 10.0 mi West 25.3 mph 34.5 mph N/A   Overcast
10:54 AM 36.0 °F 24.7 °F 21.9 °F 57% 30.06 in 10.0 mi West 21.9 mph 27.6 mph N/A   Overcast
11:45 AM 35.6 °F 26.2 °F 26.6 °F 70% 30.03 in 10.0 mi West 15.0 mph 26.5 mph N/A   Overcast
11:54 AM 36.0 °F 25.0 °F 26.1 °F 67% 30.08 in 10.0 mi West 20.7 mph 29.9 mph N/A   Overcast
12:15 PM 37.4 °F 27.2 °F 26.6 °F 65% 30.03 in 10.0 mi West 19.6 mph 29.9 mph N/A   Mostly Cloudy
12:54 PM 37.9 °F 29.2 °F 21.9 °F 53% 30.09 in 10.0 mi West 15.0 mph 29.9 mph N/A   Overcast
1:54 PM 39.0 °F 29.9 °F 21.9 °F 50% 30.11 in 10.0 mi WNW 17.3 mph 24.2 mph N/A   Overcast
2:54 PM 41.0 °F 32.2 °F 21.0 °F 45% 30.12 in 10.0 mi WNW 18.4 mph 25.3 mph N/A   Overcast
3:54 PM 41.0 °F 32.2 °F 19.9 °F 43% 30.14 in 10.0 mi WNW 18.4 mph 28.8 mph N/A   Mostly Cloudy
4:33 PM 41.0 °F 33.1 °F 19.4 °F 42% 30.10 in 10.0 mi WNW 15.0 mph 29.9 mph N/A   Overcast
4:54 PM 42.1 °F 34.9 °F 19.9 °F 41% 30.17 in 10.0 mi West 13.8 mph 27.6 mph N/A   Overcast
5:54 PM 39.9 °F 30.0 °F 21.9 °F 49% 30.20 in 10.0 mi NW 21.9 mph 26.5 mph N/A   Overcast
6:54 PM 37.9 °F 27.9 °F 19.9 °F 48% 30.24 in 10.0 mi West 19.6 mph 27.6 mph N/A   Overcast
7:54 PM 36.0 °F 28.0 °F 19.0 °F 50% 30.27 in 10.0 mi NW 11.5 mph - N/A   Mostly Cloudy
8:54 PM 35.1 °F 26.4 °F 19.0 °F 52% 30.32 in 10.0 mi WNW 12.7 mph 19.6 mph N/A   Mostly Cloudy
9:54 PM 33.1 °F 26.1 °F 19.0 °F 56% 30.34 in 10.0 mi WNW 8.1 mph - N/A   Partly Cloudy
10:54 PM 33.1 °F 26.1 °F 19.0 °F 56% 30.36 in 10.0 mi North 8.1 mph - N/A   Mostly Cloudy
11:54 PM 30.0 °F 24.1 °F 19.0 °F 64% 30.40 in 10.0 mi North 5.8 mph - N/A   Clear